Hourly Weather Herāt

Today, 5 August, Wednesday

Time Temperature Precipitation Wind Pressure Humidity
00:00 +23°C° 0 mm 9 mps 675 mmHg 45%
01:00 +22°C° 0 mm 7 mps 675 mmHg 49%
02:00 +21°C° 0 mm 7 mps 675 mmHg 50%
03:00 +21°C° 0 mm 6 mps 675 mmHg 52%
04:00 +20°C° 0 mm 6 mps 674 mmHg 53%
05:00 +21°C° 0 mm 7 mps 675 mmHg 49%
06:00 +22°C° 0 mm 7 mps 675 mmHg 45%
07:00 +24°C° 0 mm 8 mps 676 mmHg 41%
08:00 +27°C° 0 mm 9 mps 676 mmHg 35%
09:00 +29°C° 0 mm 10 mps 676 mmHg 30%
10:00 +32°C° 0 mm 11 mps 676 mmHg 25%
11:00 +33°C° 0 mm 12 mps 676 mmHg 23%
12:00 +34°C° 0 mm 13 mps 676 mmHg 21%
13:00 +36°C° 0 mm 14 mps 676 mmHg 20%
14:00 +36°C° 0 mm 14 mps 675 mmHg 19%
15:00 +36°C° 0 mm 14 mps 675 mmHg 19%
16:00 +36°C° 0 mm 14 mps 675 mmHg 19%
17:00 +34°C° 0 mm 13 mps 675 mmHg 21%
18:00 +33°C° 0 mm 12 mps 675 mmHg 22%
19:00 +31°C° 0 mm 12 mps 675 mmHg 23%
20:00 +29°C° 0 mm 11 mps 675 mmHg 25%
21:00 +28°C° 0 mm 10 mps 675 mmHg 26%
22:00 +27°C° 0 mm 10 mps 674 mmHg 28%
23:00 +26°C° 0 mm 8 mps 674 mmHg 30%

Tomorrow, 6 August, Thursday

Time Temperature Precipitation Wind Pressure Humidity
00:00 +23°C° 0 mm 6 mps 674 mmHg 32%
01:00 +22°C° 0 mm 4 mps 674 mmHg 35%
02:00 +21°C° 0 mm 4 mps 673 mmHg 36%
03:00 +21°C° 0 mm 4 mps 673 mmHg 38%
04:00 +20°C° 0 mm 3 mps 673 mmHg 39%
05:00 +22°C° 0 mm 3 mps 674 mmHg 35%
06:00 +25°C° 0 mm 3 mps 675 mmHg 31%
07:00 +27°C° 0 mm 3 mps 675 mmHg 27%
08:00 +29°C° 0 mm 4 mps 676 mmHg 23%
09:00 +33°C° 0 mm 4 mps 676 mmHg 19%
10:00 +35°C° 0 mm 5 mps 677 mmHg 15%
11:00 +38°C° 0 mm 6 mps 677 mmHg 14%
12:00 +39°C° 0 mm 7 mps 676 mmHg 12%
13:00 +40°C° 0 mm 9 mps 676 mmHg 11%
14:00 +40°C° 0 mm 10 mps 676 mmHg 11%
15:00 +41°C° 0 mm 11 mps 676 mmHg 12%
16:00 +41°C° 0 mm 13 mps 675 mmHg 12%
17:00 +38°C° 0 mm 12 mps 675 mmHg 13%
18:00 +36°C° 0 mm 11 mps 675 mmHg 15%
19:00 +33°C° 0 mm 10 mps 675 mmHg 17%
20:00 +32°C° 0 mm 9 mps 675 mmHg 18%
21:00 +31°C° 0 mm 8 mps 675 mmHg 20%
22:00 +28°C° 0 mm 8 mps 676 mmHg 21%
23:00 +27°C° 0 mm 7 mps 675 mmHg 23%

Day after tomorrow, 7 August, Friday

Time Temperature Precipitation Wind Pressure Humidity
00:00 +26°C° 0 mm 6 mps 675 mmHg 25%
01:00 +25°C° 0 mm 5 mps 675 mmHg 26%
02:00 +25°C° 0 mm 4 mps 675 mmHg 28%
03:00 +23°C° 0 mm 4 mps 674 mmHg 29%
04:00 +22°C° 0 mm 4 mps 674 mmHg 31%
05:00 +25°C° 0 mm 4 mps 675 mmHg 28%
06:00 +26°C° 0 mm 4 mps 676 mmHg 26%
07:00 +28°C° 0 mm 4 mps 677 mmHg 23%
08:00 +30°C° 0 mm 6 mps 677 mmHg 21%
09:00 +33°C° 0 mm 8 mps 677 mmHg 18%
10:00 +37°C° 0 mm 9 mps 678 mmHg 15%
11:00 +38°C° 0 mm 10 mps 677 mmHg 14%
12:00 +39°C° 0 mm 10 mps 677 mmHg 13%
13:00 +41°C° 0 mm 11 mps 677 mmHg 11%
14:00 +41°C° 0 mm 12 mps 677 mmHg 11%
15:00 +41°C° 0 mm 12 mps 676 mmHg 11%
16:00 +41°C° 0 mm 13 mps 676 mmHg 11%
17:00 +38°C° 0 mm 13 mps 676 mmHg 13%
18:00 +36°C° 0 mm 13 mps 676 mmHg 15%
19:00 +33°C° 0 mm 12 mps 676 mmHg 16%
20:00 +32°C° 0 mm 11 mps 676 mmHg 18%
21:00 +31°C° 0 mm 10 mps 676 mmHg 20%
22:00 +29°C° 0 mm 9 mps 676 mmHg 22%
23:00 +28°C° 0 mm 8 mps 676 mmHg 24%

8 August, Saturday

Time Temperature Precipitation Wind Pressure Humidity
00:00 +27°C° 0 mm 6 mps 675 mmHg 26%
01:00 +25°C° 0 mm 5 mps 675 mmHg 28%
02:00 +23°C° 0 mm 5 mps 675 mmHg 32%
03:00 +22°C° 0 mm 5 mps 675 mmHg 36%
04:00 +21°C° 0 mm 5 mps 674 mmHg 40%
05:00 +22°C° 0 mm 5 mps 675 mmHg 38%
06:00 +23°C° 0 mm 6 mps 675 mmHg 37%
07:00 +26°C° 0 mm 6 mps 676 mmHg 35%
08:00 +28°C° 0 mm 7 mps 676 mmHg 31%
09:00 +30°C° 0 mm 7 mps 676 mmHg 28%
10:00 +33°C° 0 mm 8 mps 677 mmHg 24%
11:00 +34°C° 0 mm 8 mps 676 mmHg 22%
12:00 +37°C° 0 mm 9 mps 676 mmHg 19%
13:00 +38°C° 0 mm 9 mps 676 mmHg 17%
14:00 +38°C° 0 mm 10 mps 675 mmHg 17%
15:00 +38°C° 0 mm 10 mps 675 mmHg 17%
16:00 +38°C° 0 mm 11 mps 674 mmHg 17%
17:00 +36°C° 0 mm 11 mps 674 mmHg 19%
18:00 +34°C° 0 mm 11 mps 675 mmHg 21%
19:00 +32°C° 0 mm 11 mps 675 mmHg 24%
20:00 +31°C° 0 mm 11 mps 675 mmHg 25%
21:00 +29°C° 0 mm 11 mps 675 mmHg 27%
22:00 +28°C° 0 mm 10 mps 675 mmHg 28%
23:00 +27°C° 0 mm 10 mps 675 mmHg 30%

9 August, Sunday

Time Temperature Precipitation Wind Pressure Humidity
00:00 +26°C° 0 mm 10 mps 675 mmHg 33%
01:00 +24°C° 0 mm 10 mps 675 mmHg 35%
02:00 +23°C° 0 mm 8 mps 674 mmHg 38%
03:00 +22°C° 0 mm 7 mps 674 mmHg 40%
04:00 +21°C° 0 mm 5 mps 674 mmHg 42%
05:00 +22°C° 0 mm 6 mps 674 mmHg 38%
06:00 +23°C° 0 mm 6 mps 675 mmHg 35%
07:00 +26°C° 0 mm 6 mps 675 mmHg 31%
08:00 +28°C° 0 mm 7 mps 675 mmHg 27%
09:00 +31°C° 0 mm 9 mps 675 mmHg 24%
10:00 +33°C° 0 mm 10 mps 675 mmHg 20%
11:00 +34°C° 0 mm 11 mps 675 mmHg 19%
12:00 +36°C° 0 mm 12 mps 675 mmHg 17%
13:00 +37°C° 0 mm 13 mps 675 mmHg 16%
14:00 +37°C° 0 mm 13 mps 674 mmHg 16%
15:00 +37°C° 0 mm 14 mps 674 mmHg 16%
16:00 +37°C° 0 mm 14 mps 674 mmHg 16%
17:00 +34°C° 0 mm 13 mps 673 mmHg 19%
18:00 +33°C° 0 mm 12 mps 673 mmHg 21%
19:00 +31°C° 0 mm 10 mps 673 mmHg 23%
20:00 +29°C° 0 mm 10 mps 673 mmHg 24%
21:00 +28°C° 0 mm 9 mps 674 mmHg 25%
22:00 +27°C° 0 mm 8 mps 674 mmHg 26%
23:00 +26°C° 0 mm 7 mps 673 mmHg 27%

10 August, Monday

Time Temperature Precipitation Wind Pressure Humidity
00:00 +24°C° 0 mm 6 mps 673 mmHg 28%
01:00 +23°C° 0 mm 5 mps 673 mmHg 28%
02:00 +23°C° 0 mm 5 mps 672 mmHg 29%
03:00 +22°C° 0 mm 5 mps 672 mmHg 30%
04:00 +22°C° 0 mm 5 mps 672 mmHg 30%
05:00 +23°C° 0 mm 5 mps 673 mmHg 28%
06:00 +26°C° 0 mm 6 mps 673 mmHg 25%
07:00 +27°C° 0 mm 6 mps 674 mmHg 23%
08:00 +29°C° 0 mm 8 mps 674 mmHg 20%
09:00 +32°C° 0 mm 9 mps 674 mmHg 17%
10:00 +36°C° 0 mm 11 mps 674 mmHg 14%
11:00 +37°C° 0 mm 12 mps 674 mmHg 13%
12:00 +38°C° 0 mm 13 mps 674 mmHg 12%
13:00 +40°C° 0 mm 14 mps 674 mmHg 12%
14:00 +40°C° 0 mm 14 mps 674 mmHg 12%
15:00 +40°C° 0 mm 14 mps 673 mmHg 12%
16:00 +38°C° 0 mm 14 mps 673 mmHg 12%
17:00 +37°C° 0 mm 13 mps 673 mmHg 13%
18:00 +34°C° 0 mm 12 mps 673 mmHg 15%
19:00 +32°C° 0 mm 11 mps 673 mmHg 16%
20:00 +31°C° 0 mm 10 mps 673 mmHg 18%
21:00 +29°C° 0 mm 9 mps 673 mmHg 19%
22:00 +28°C° 0 mm 8 mps 674 mmHg 21%
23:00 +27°C° 0 mm 8 mps 673 mmHg 22%
Show more